Location: Ostrava
(49.8330°N, 18.2830°E)
Time: 21:26:25
(UTC+01:00)

Iridium 7 - Visible Passes

Search period start: 10 December 2016 00:00
Search period end: 20 December 2016 00:00
Orbit: 776 x 779 km, 86.4° (Epoch: 10 December)

Date Brightness Start Highest point End Pass type
(mag) Time Alt. Az. Time Alt. Az. Time Alt. Az.
14 Dec 8.2 06:26:49 10° NE 06:28:51 12° ENE 06:30:54 10° E visible
16 Dec 7.6 06:58:44 10° NNE 07:03:09 27° ENE 07:07:32 10° SE visible
17 Dec 8.1 06:25:57 10° NNE 06:29:14 17° ENE 06:32:31 10° ESE visible
19 Dec 7.1 06:58:35 10° N 07:03:24 36° ENE 07:08:11 10° SE visible
